HB0RER-13 Weather Reports


time (UTC)temp
C
wind
direction
speed
KPH
gust
KPH
rain 1hr
cm
rain 24hr
cm
rain mn
cm
humidity
%
barometer
mb
20260507042358 9 270 3.2 4.8 0.00 0.20 0.03 91 1013.4
20260507041356 9 270 1.6 4.8 0.00 0.20 0.03 91 1013.3
20260507040333 9 282 3.2 6.4 0.00 0.20 0.03 90 1013.3
20260507035331 9 278 3.2 6.4 0.00 0.20 0.03 89 1013.2
20260507034329 9 270 3.2 4.8 0.00 0.20 0.03 89 1013.2
20260507033347 9 270 3.2 6.4 0.00 0.20 0.03 89 1013.0
20260507032325 9 270 1.6 4.8 0.00 0.20 0.03 89 1013.0
20260507031323 10 270 3.2 6.4 0.00 0.20 0.03 89 1012.9
20260507030322 10 270 3.2 6.4 0.00 0.20 0.03 89 1012.9
20260507025319 10 270 3.2 6.4 0.00 0.20 0.03 90 1012.9
20260507024317 10 270 1.6 6.4 0.00 0.20 0.03 89 1012.9
20260507023316 10 270 1.6 4.8 0.00 0.20 0.03 89 1012.9
20260507022313 10 281 3.2 6.4 0.00 0.20 0.03 89 1012.8
20260507021312 10 270 1.6 4.8 0.00 0.20 0.03 89 1012.7
20260507020309 10 270 3.2 6.4 0.00 0.20 0.03 88 1012.7
20260507015307 10 270 3.2 6.4 0.00 0.20 0.03 88 1012.6
20260507014325 10 281 3.2 4.8 0.00 0.20 0.03 87 1012.5
20260507013304 10 270 3.2 4.8 0.00 0.20 0.03 87 1012.5
20260507012305 10 302 1.6 3.2 0.00 0.20 0.03 88 1012.5
20260507011259 10 270 1.6 4.8 0.00 0.20 0.03 88 1012.4
20260507010317 10 270 3.2 6.4 0.00 0.20 0.03 88 1012.4
20260507005255 10 270 3.2 6.4 0.00 0.20 0.03 87 1012.4
20260507004313 10 270 1.6 4.8 0.00 0.20 0.03 87 1012.4
20260507003250 10 285 1.6 3.2 0.00 0.20 0.03 87 1012.3
20260507002249 10 270 3.2 4.8 0.00 0.20 0.03 88 1012.3
20260507001247 10 270 3.2 4.8 0.00 0.20 0.03 88 1012.2
20260507000245 10 270 1.6 4.8 0.03 0.20 0.03 87 1012.3
20260506235244 11 341 1.6 3.2 0.03 0.20 0.03 88 1012.3
20260506234241 10 283 3.2 4.8 0.03 0.20 0.03 87 1012.3
20260506233301 10 270 1.6 4.8 0.03 0.20 0.03 87 1012.4
20260506232237 10 270 3.2 6.4 0.03 0.20 0.03 86 1012.3
20260506231235 10 270 3.2 6.4 0.03 0.20 0.03 85 1012.3
20260506230233 10 254 3.2 6.4 0.00 0.18 0.00 85 1012.2
20260506225231 11 258 3.2 6.4 0.00 0.18 0.00 84 1012.2
20260506224230 11 270 3.2 6.4 0.00 0.18 0.00 83 1012.1
20260506223227 11 270 3.2 6.4 0.00 0.18 0.00 82 1012.1
20260506222224 11 270 3.2 4.8 0.00 0.18 0.00 82 1012.0
20260506221224 11 270 1.6 6.4 0.00 0.18 0.00 82 1012.0
20260506220221 11 270 3.2 6.4 0.00 0.18 0.00 82 1011.9
20260506215219 11 270 3.2 4.8 0.00 0.18 0.18 82 1011.8
20260506214217 11 270 1.6 3.2 0.00 0.18 0.18 82 1011.8
20260506213216 11 270 1.6 4.8 0.00 0.18 0.18 82 1011.8
20260506212213 11 270 3.2 6.4 0.00 0.18 0.18 81 1011.8
20260506211211 11 280 3.2 4.8 0.00 0.18 0.18 81 1011.7
20260506210209 11 270 1.6 3.2 0.00 0.18 0.18 80 1011.6
20260506205207 11 270 1.6 3.2 0.00 0.18 0.18 80 1011.6
20260506204205 11 270 3.2 6.4 0.00 0.18 0.18 80 1011.6
20260506203203 11 262 3.2 6.4 0.00 0.18 0.18 80 1011.6
20260506202221 11 270 3.2 6.4 0.00 0.18 0.18 79 1011.5
20260506201200 11 270 3.2 4.8 0.00 0.18 0.18 79 1011.4
20260506200157 11 270 3.2 4.8 0.00 0.18 0.18 78 1011.4
20260506195154 11 270 1.6 3.2 0.00 0.18 0.18 78 1011.3
20260506194153 11 290 1.6 3.2 0.00 0.18 0.18 78 1011.1
20260506193151 11 288 1.6 3.2 0.00 0.18 0.18 78 1010.9
20260506192149 11 270 1.6 4.8 0.00 0.18 0.18 77 1010.8
20260506191147 11 270 1.6 4.8 0.00 0.18 0.18 76 1010.8
20260506190145 12 270 1.6 4.8 0.00 0.18 0.18 76 1010.5
20260506185143 12 270 1.6 3.2 0.00 0.18 0.18 76 1010.5
20260506184141 12 270 1.6 4.8 0.00 0.18 0.18 76 1010.2
20260506183159 12 270 1.6 3.2 0.00 0.18 0.18 76 1010.1
20260506182138 12 270 3.2 4.8 0.00 0.18 0.18 76 1010.0
20260506181135 12 270 1.6 4.8 0.00 0.18 0.18 76 1010.0
20260506180133 12 270 3.2 4.8 0.00 0.18 0.18 75 1009.9
20260506175151 12 253 3.2 6.4 0.00 0.18 0.18 74 1009.8
20260506174128 12 247 4.8 9.7 0.00 0.18 0.18 73 1009.8
20260506173126 12 253 3.2 9.7 0.00 0.18 0.18 73 1009.7
20260506172124 13 240 3.2 8.0 0.00 0.18 0.18 73 1009.7
20260506171122 13 246 3.2 6.4 0.00 0.18 0.18 72 1009.5
20260506170121 13 239 3.2 4.8 0.00 0.18 0.18 71 1009.2
20260506165118 13 243 3.2 8.0 0.00 0.18 0.18 71 1009.1
20260506164117 13 270 3.2 6.4 0.00 0.18 0.18 73 1009.0
20260506163134 13 270 3.2 4.8 0.00 0.18 0.18 74 1009.0
20260506162112 12 270 3.2 8.0 0.00 0.18 0.18 75 1009.0
20260506161110 12 270 3.2 6.4 0.08 0.18 0.18 73 1008.9
20260506160108 12 135 3.2 6.4 0.15 0.18 0.18 71 1008.7
20260506155107 12 243 6.4 12.9 0.18 0.18 0.18 70 1009.0
20260506154104 12 270 4.8 9.7 0.18 0.18 0.18 69 1009.1
20260506153122 12 225 3.2 11.3 0.18 0.18 0.18 67 1009.2
20260506152100 12 137 3.2 9.7 0.18 0.18 0.18 64 1009.1
20260506151058 13 231 11.3 22.5 0.10 0.10 0.10 61 1009.0
20260506150056 15 227 11.3 27.4 0.03 0.03 0.03 56 1008.4
20260506145054 16 236 11.3 30.6 0.00 0.00 0.00 50 1007.3
20260506144052 17 227 9.7 19.3 0.00 0.00 0.00 51 1007.0
20260506143050 17 219 9.7 17.7 0.00 0.00 0.00 52 1006.6
20260506142048 17 209 6.4 17.7 0.00 0.00 0.00 59 1006.5
20260506141046 17 220 4.8 11.3 0.00 0.00 0.00 61 1006.2
20260506140044 17 228 6.4 14.5 0.00 0.00 0.00 62 1006.2
20260506135042 18 251 4.8 11.3 0.00 0.00 0.00 62 1006.5
20260506134041 18 281 4.8 9.7 0.00 0.00 0.00 59 1006.2
20260506133038 18 306 3.2 6.4 0.00 0.00 0.00 58 1006.1
20260506132036 18 52 3.2 8.0 0.00 0.00 0.00 60 1006.0
20260506131033 18 45 3.2 6.4 0.00 0.00 0.00 61 1006.0
20260506130054 18 73 3.2 9.7 0.00 0.00 0.00 63 1006.1
20260506125040 18 198 3.2 8.0 0.00 0.00 0.00 62 1006.1
20260506124028 17 217 3.2 9.7 0.00 0.00 0.00 64 1006.1
20260506123029 17 286 3.2 9.7 0.00 0.00 0.00 64 1006.0
20260506122024 17 236 3.2 9.7 0.00 0.00 0.00 67 1006.1
20260506121022 16 233 4.8 11.3 0.00 0.00 0.00 66 1006.2
20260506120020 16 233 4.8 9.7 0.00 0.00 0.00 66 1006.6
20260506115018 16 225 3.2 6.4 0.00 0.00 0.00 66 1006.6
20260506114017 16 219 3.2 9.7 0.00 0.00 0.00 66 1006.6
20260506112513 16 229 6.4 11.3 0.00 0.00 0.00 65 1006.2
20260506111511 16 230 4.8 11.3 0.00 0.00 0.00 67 1006.4
20260506110510 16 226 6.4 9.7 0.00 0.00 0.00 67 1006.0
20260506105507 16 231 4.8 9.7 0.00 0.00 0.00 67 1006.1
20260506104505 16 226 6.4 12.9 0.00 0.00 0.00 67 1006.2
20260506103504 16 233 6.4 11.3 0.00 0.00 0.00 67 1006.5
20260506102000 16 229 6.4 11.3 0.00 0.00 0.00 66 1006.7
20260506100959 16 229 6.4 9.7 0.00 0.00 0.00 65 1006.7
20260506095956 17 232 4.8 11.3 0.00 0.00 0.00 64 1006.8
20260506094954 17 270 3.2 6.4 0.00 0.00 0.00 66 1006.9
20260506093953 17 228 3.2 9.7 0.00 0.00 0.00 68 1006.9
20260506092950 16 235 3.2 9.7 0.00 0.00 0.00 69 1006.7
20260506091948 16 249 3.2 9.7 0.00 0.00 0.00 69 1006.8
20260506090946 15 234 3.2 6.4 0.00 0.00 0.00 71 1006.8
20260506085943 15 225 3.2 9.7 0.00 0.00 0.00 72 1006.9
20260506084941 15 206 1.6 4.8 0.00 0.00 0.00 73 1007.0
20260506083939 14 237 3.2 6.4 0.00 0.00 0.00 73 1007.0
20260506082938 14 235 4.8 9.7 0.00 0.00 0.00 74 1007.0
20260506081935 14 237 3.2 8.0 0.00 0.00 0.00 76 1007.1
20260506080933 13 241 4.8 11.3 0.00 0.00 0.00 76 1007.1
20260506072925 13 243 3.2 6.4 0.00 0.00 0.00 80 1007.0
20260506071925 12 255 3.2 6.4 0.00 0.00 0.00 81 1007.0
20260506070921 12 246 3.2 6.4 0.00 0.00 0.00 82 1007.0
20260506061912 12 247 3.2 6.4 0.00 0.00 0.00 79 1007.2
20260506060909 12 250 3.2 6.4 0.00 0.00 0.00 78 1007.2
20260506050857 10 255 3.2 6.4 0.00 0.00 0.00 80 1007.3
20260506044913 10 256 3.2 6.4 0.00 0.00 0.00 82 1007.5
20260506043911 10 260 3.2 6.4 0.00 0.00 0.00 80 1007.6
20260506042849 10 238 3.2 6.4 0.00 0.00 0.00 80 1007.7